User: anonymous
Location: Nantong Television Tower
(32.0188°N, 120.8512°E)
Time: 14:10:31
(UTC+08:00)
Language:

ATLAS 3B CENTAUR R/B - Orbit

View from above orbital plane
View from above orbital plane
View from above satellite
View from above satellite

Ground track
Ground track

The orbit data is extracted from the following two-line orbital elements,

1 28118U 03057B   14264.51101101  .00063672  00000-0  15162-2 0  7665
2 28118 028.1356 292.7575 3833230 058.3357 048.6447 07.82565769203101
Epoch (UTC): 21 September 2014 12:15:51
Eccentricity: 0.3833230
inclination: 28.1356°
perigee height: 230 km
apogee height: 8446 km
right ascension of ascending node: 292.7575°
argument of perigee: 58.3357°
revolutions per day: 7.82565769
mean anomaly at epoch: 48.6447°
orbit number at epoch: 20310

The dashed part of the orbit path shows where the satellite is in the earth's shadow,  

DLR